Starlink 6137

operational
NORAD ID: 57156 Int'l Des: 2023-090 Owner: SPXS Country: US Constellation: starlink
LEOCIRCULAR

Starlink 6137について

説明を読み込み中...

リアルタイム位置

3D地球を読み込み中...

次回通過

高度履歴

Altitude vs Time

uPlot chart will show altitude changes over time

軌道要素

1 57156U 23090BH 25352.96714267 .00000275 00000-0 35449-4 0 9990
2 57156 43.0060 339.9903 0001200 271.2652 88.8053 15.02536637138421
Epoch: Dec 18, 2025 • Age: 31 hours

現在のステータス

高度 567.5 km
速度 7.58 km/s
衛星直下点 -32.34°S, 8°E
打ち上げ日 Jun 23, 2023
運用期間 2.4 years
タイプ internet

技術仕様

分類 Payload
質量 305.00 kg
乾燥質量 290.00 kg
総質量 305.00 kg
長さ 0.20 m
直径 2.80 m
スパン 9.00 m
形状 Box + pan
製造者 SPXS
バスタイプ Starlink
フェーズステータス In Orbit
所有者/国 SPXS/US

大規模コンステレーション

Loading constellations...